Location: Chuathbaluk
(61.5726°N, 159.2454°W)
Time: 08:11:56
(UTC+00:00)

XW-2F - Pass Details

Date: 23 January 2021
Orbit: 499 x 520 km, 97.5° (Epoch: 09 March)

Event Time Altitude Azimuth Distance (km) Brightness Sun altitude
Rises 16:49:15 0° 18° (NNE) 2,664 ? -16.8°
Reaches altitude 10° 16:51:24 10° 23° (NNE) 1,773 ? -16.6°
Maximum altitude 16:55:10 54° 102° (ESE) 643 ? -16.1°
Drops below altitude 10° 16:58:54 10° 180° (S) 1,762 ? -15.7°
Sets 17:01:01 0° 185° (S) 2,645 ? -15.5°
